When you browse on this site, cookies collect data to enhance your experience and personalize the content and advertising you see.
Visit our Privacy Policy to learn more. By continuing to use the site, you agree to this use of cookies and data.
  • In Slovakia
  • List of Countries
  • For 7 days
  • Water Temperature
  • Satellite Maps
  • Weather Map
  • Weather Widgets
  • user-avatar
    Login

    Hourly Weather Varna

    Today, 23 January, Wednesday

    Time Temperature Precipitation Wind Pressure Humidity
    00:00 +3°C° 0 mm 6 mps 742 mmHg 92%
    01:00 +3°C° 0 mm 6 mps 742 mmHg 93%
    02:00 +4°C° 0 mm 6 mps 741 mmHg 94%
    03:00 +4°C° 0.4 mm 6 mps 741 mmHg 94%
    04:00 +4°C° 0.4 mm 6 mps 740 mmHg 95%
    05:00 +4°C° 0.4 mm 6 mps 739 mmHg 96%
    06:00 +4°C° 1.1 mm 6 mps 739 mmHg 95%
    07:00 +5°C° 1.1 mm 5 mps 738 mmHg 94%
    08:00 +6°C° 1.1 mm 5 mps 738 mmHg 94%
    09:00 +7°C° 0 mm 6 mps 738 mmHg 90%
    10:00 +8°C° 0 mm 6 mps 738 mmHg 86%
    11:00 +9°C° 0 mm 7 mps 738 mmHg 83%
    12:00 +10°C° 0 mm 6 mps 738 mmHg 79%
    13:00 +10°C° 0 mm 6 mps 738 mmHg 76%
    14:00 +11°C° 0 mm 6 mps 737 mmHg 72%
    15:00 +10°C° 0 mm 5 mps 737 mmHg 76%
    16:00 +9°C° 0 mm 5 mps 737 mmHg 80%
    17:00 +10°C° 0 mm 4 mps 737 mmHg 83%
    18:00 +8°C° 0 mm 5 mps 737 mmHg 86%
    19:00 +8°C° 0 mm 5 mps 737 mmHg 88%
    20:00 +8°C° 0 mm 5 mps 736 mmHg 91%
    21:00 +7°C° 0 mm 6 mps 736 mmHg 91%
    22:00 +7°C° 0 mm 6 mps 736 mmHg 90%
    23:00 +7°C° 0 mm 6 mps 737 mmHg 90%

    Tomorrow, 24 January, Thursday

    Time Temperature Precipitation Wind Pressure Humidity
    00:00 +7°C° 0 mm 5 mps 736 mmHg 91%
    01:00 +7°C° 0 mm 5 mps 736 mmHg 93%
    02:00 +7°C° 0 mm 5 mps 736 mmHg 94%
    03:00 +7°C° 0.1 mm 5 mps 736 mmHg 95%
    04:00 +7°C° 0.1 mm 5 mps 735 mmHg 96%
    05:00 +7°C° 0.1 mm 6 mps 735 mmHg 96%
    06:00 +7°C° 0 mm 6 mps 734 mmHg 96%
    07:00 +7°C° 0 mm 6 mps 734 mmHg 95%
    08:00 +7°C° 0 mm 6 mps 734 mmHg 94%
    09:00 +7°C° 0.8 mm 6 mps 734 mmHg 93%
    10:00 +7°C° 0.8 mm 6 mps 734 mmHg 91%
    11:00 +7°C° 0.8 mm 6 mps 734 mmHg 90%
    12:00 +7°C° 2 mm 6 mps 733 mmHg 92%
    13:00 +7°C° 2 mm 5 mps 733 mmHg 94%
    14:00 +7°C° 2 mm 4 mps 732 mmHg 96%
    15:00 +7°C° 0.3 mm 4 mps 732 mmHg 95%
    16:00 +7°C° 0.3 mm 5 mps 732 mmHg 93%
    17:00 +7°C° 0.3 mm 5 mps 732 mmHg 92%
    18:00 +7°C° 0 mm 4 mps 732 mmHg 91%
    19:00 +7°C° 0 mm 4 mps 732 mmHg 89%
    20:00 +7°C° 0 mm 4 mps 732 mmHg 87%
    21:00 +7°C° 0 mm 4 mps 732 mmHg 88%
    22:00 +7°C° 0 mm 4 mps 733 mmHg 88%
    23:00 +7°C° 0 mm 4 mps 733 mmHg 89%

    Day after tomorrow, 25 January, Friday

    Time Temperature Precipitation Wind Pressure Humidity
    00:00 +6°C° 0 mm 4 mps 733 mmHg 90%
    01:00 +6°C° 0 mm 4 mps 734 mmHg 90%
    02:00 +6°C° 0 mm 4 mps 734 mmHg 91%
    03:00 +6°C° 0 mm 4 mps 734 mmHg 91%
    04:00 +6°C° 0 mm 4 mps 734 mmHg 91%
    05:00 +6°C° 0 mm 4 mps 734 mmHg 91%
    06:00 +6°C° 0 mm 4 mps 734 mmHg 91%
    07:00 +6°C° 0 mm 4 mps 734 mmHg 90%
    08:00 +6°C° 0 mm 4 mps 734 mmHg 89%
    09:00 +6°C° 1.2 mm 5 mps 734 mmHg 90%
    10:00 +5°C° 1.2 mm 6 mps 734 mmHg 91%
    11:00 +7°C° 1.2 mm 6 mps 735 mmHg 92%
    12:00 +6°C° 0.1 mm 7 mps 735 mmHg 89%
    13:00 +8°C° 0.1 mm 7 mps 734 mmHg 87%
    14:00 +8°C° 0.1 mm 7 mps 734 mmHg 84%
    15:00 +8°C° 0.2 mm 7 mps 734 mmHg 86%
    16:00 +7°C° 0.2 mm 6 mps 734 mmHg 87%
    17:00 +7°C° 0.2 mm 5 mps 734 mmHg 89%
    18:00 +7°C° 0.1 mm 6 mps 734 mmHg 88%
    19:00 +8°C° 0.1 mm 7 mps 734 mmHg 86%
    20:00 +7°C° 0.1 mm 8 mps 734 mmHg 85%
    21:00 +7°C° 0.2 mm 8 mps 734 mmHg 87%
    22:00 +7°C° 0.2 mm 8 mps 734 mmHg 88%
    23:00 +6°C° 0.2 mm 8 mps 734 mmHg 89%

    26 January, Saturday

    Time Temperature Precipitation Wind Pressure Humidity
    00:00 +6°C° 0.5 mm 8 mps 733 mmHg 90%
    01:00 +6°C° 0.5 mm 7 mps 733 mmHg 90%
    02:00 +6°C° 0.5 mm 7 mps 733 mmHg 91%
    03:00 +6°C° 0.1 mm 7 mps 733 mmHg 91%
    04:00 +7°C° 0.1 mm 6 mps 733 mmHg 90%
    05:00 +7°C° 0.1 mm 6 mps 733 mmHg 90%
    06:00 +7°C° 0.1 mm 5 mps 733 mmHg 91%
    07:00 +7°C° 0.1 mm 4 mps 733 mmHg 92%
    08:00 +7°C° 0.1 mm 2 mps 733 mmHg 93%
    09:00 +8°C° 0 mm 3 mps 734 mmHg 91%
    10:00 +8°C° 0 mm 4 mps 734 mmHg 88%
    11:00 +8°C° 0 mm 4 mps 734 mmHg 85%
    12:00 +10°C° 0 mm 4 mps 734 mmHg 82%
    13:00 +10°C° 0 mm 4 mps 734 mmHg 79%
    14:00 +11°C° 0 mm 3 mps 734 mmHg 76%
    15:00 +10°C° 0 mm 4 mps 734 mmHg 80%
    16:00 +8°C° 0 mm 5 mps 735 mmHg 83%
    17:00 +7°C° 0 mm 5 mps 735 mmHg 86%
    18:00 +7°C° 0 mm 6 mps 735 mmHg 88%
    19:00 +5°C° 0 mm 7 mps 736 mmHg 90%
    20:00 +4°C° 0 mm 7 mps 736 mmHg 92%
    21:00 +4°C° 0 mm 7 mps 737 mmHg 91%
    22:00 +4°C° 0 mm 7 mps 737 mmHg 90%
    23:00 +4°C° 0 mm 7 mps 737 mmHg 89%

    27 January, Sunday

    Time Temperature Precipitation Wind Pressure Humidity
    00:00 +4°C° 0.1 mm 7 mps 737 mmHg 89%
    01:00 +4°C° 0.1 mm 7 mps 737 mmHg 90%
    02:00 +4°C° 0.1 mm 7 mps 738 mmHg 90%
    03:00 +3°C° 0.1 mm 7 mps 738 mmHg 90%
    04:00 +3°C° 0.1 mm 7 mps 738 mmHg 90%
    05:00 +3°C° 0.1 mm 6 mps 737 mmHg 90%
    06:00 +3°C° 0 mm 6 mps 738 mmHg 90%
    07:00 +3°C° 0 mm 6 mps 738 mmHg 90%
    08:00 +3°C° 0 mm 6 mps 738 mmHg 90%
    09:00 +3°C° 0 mm 6 mps 738 mmHg 89%
    10:00 +3°C° 0 mm 6 mps 739 mmHg 88%
    11:00 +3°C° 0 mm 6 mps 739 mmHg 87%
    12:00 +3°C° 0 mm 6 mps 739 mmHg 87%
    13:00 +3°C° 0 mm 6 mps 739 mmHg 86%
    14:00 +2°C° 0 mm 6 mps 739 mmHg 85%
    15:00 +2°C° 0 mm 7 mps 739 mmHg 85%
    16:00 +2°C° 0 mm 7 mps 739 mmHg 85%
    17:00 +2°C° 0 mm 7 mps 739 mmHg 86%
    18:00 0°C° 0 mm 7 mps 740 mmHg 86%
    19:00 0°C° 0 mm 7 mps 740 mmHg 87%
    20:00 0°C° 0 mm 7 mps 740 mmHg 88%
    21:00 0°C° 0 mm 7 mps 740 mmHg 88%
    22:00 -1°C° 0 mm 7 mps 741 mmHg 88%
    23:00 -1°C° 0 mm 7 mps 741 mmHg 88%

    28 January, Monday

    Time Temperature Precipitation Wind Pressure Humidity
    00:00 -1°C° 0 mm 7 mps 741 mmHg 88%
    01:00 -1°C° 0 mm 7 mps 741 mmHg 87%
    02:00 -1°C° 0 mm 6 mps 741 mmHg 87%
    03:00 -1°C° 0.1 mm 7 mps 742 mmHg 87%
    04:00 -1°C° 0.1 mm 7 mps 742 mmHg 87%
    05:00 -1°C° 0.1 mm 7 mps 742 mmHg 88%
    06:00 -1°C° 0.1 mm 7 mps 743 mmHg 88%
    07:00 -1°C° 0.1 mm 7 mps 743 mmHg 88%
    08:00 -1°C° 0.1 mm 8 mps 744 mmHg 88%
    09:00 0°C° 0.1 mm 8 mps 744 mmHg 87%
    10:00 0°C° 0.1 mm 8 mps 745 mmHg 86%
    11:00 0°C° 0.1 mm 8 mps 745 mmHg 85%
    12:00 0°C° 0.1 mm 8 mps 746 mmHg 84%
    13:00 0°C° 0.1 mm 8 mps 746 mmHg 83%
    14:00 0°C° 0.1 mm 7 mps 746 mmHg 82%
    15:00 0°C° 0 mm 7 mps 747 mmHg 84%
    16:00 -1°C° 0 mm 7 mps 748 mmHg 85%
    17:00 -1°C° 0 mm 7 mps 748 mmHg 86%
    18:00 -1°C° 0.1 mm 7 mps 749 mmHg 86%
    19:00 -1°C° 0.1 mm 7 mps 750 mmHg 86%
    20:00 -2°C° 0.1 mm 7 mps 750 mmHg 86%
    21:00 -2°C° 0 mm 7 mps 751 mmHg 86%
    22:00 -2°C° 0 mm 7 mps 751 mmHg 86%
    23:00 -1°C° 0 mm 6 mps 752 mmHg 86%
    Show more